星链-31803 (STARLINK-31803 )

导读

STARLINK-31803是美国SpaceX公司星链星座中的第二代低轨互联网卫星,于2024年5月3日发射入轨。作为SpaceX全球高速互联网星座建设的一环,该卫星运行在近地轨道,配备先进通信载荷,旨在为全球尤其是偏远区域提供低延迟宽带接入服务,助力星链星座完成组网部署,提升全球网络覆盖的稳定性与服务能力。

Basic Information
目录编号:
59649
目录名称:
STARLINK-31803
国际标识:
2024-082U
轨道中心:
EARTH
卫星名称:
星链-31803
卫星全名:
星链-31803 (STARLINK-31803 )
卫星状态:
已陨落 最后检测时间 2025-05-03
发射日期:
2024-05-03 UTC
国别 :
美国 (US)
星等 :
--
Orbit Information
数据来源 国际轨道数据
星历时间: 2025-05-02T15:54:17+0800
轨道信息已过期411天
半长轴: 6639.257km
偏心率: 0.0015516
轨道倾角: 42.989°
近地点辐角 214.935°
升交点赤经 64.592°
平近点角 282.547°
近地点: 250.82km
远地点: 271.424km
周期: 89.730分钟
每日圈数: 16.0481
Detailed Information
固有亮度:
5
最大亮度:
1.5
卫星平台:
Starlink v2.0 mini
覆盖范围:
全球
运营商:
太空探索技术公司
运营商所在国:
美国
制造商(研发单位):
太空探索技术公司
制造商所在国:
美国
使用方式:
暂无
Satellite Introduction
星链(Starlink)计划是由太空探索技术公司(SpaceX)提出的一个巨型低轨卫星互联网星座项目,计划在2019年至2024年间在太空搭建由约1.2万颗卫星组成的“星链”网络,其中1584颗将部署在地球上空550千米处的近地轨道,并从2020年开始工作。该卫星仍在工作。